STARLINK-11515 [DTC] (62556 NORAD) Tracking and Keplerian Element Data

This shows tracking and keplerian element data for the satellite.

Feedback or suggestion? Click here.




ElementValue
Catalog62556
NameSTARLINK-11515 [DTC]
Epoch Orbit487
Epoch Day34.68284598
Epoch Year2025
RAAN29.0482
Inclination43.0003
Eccentricity0.0001815
Argument of Perigee258.5884
Mean Anonmoly101.4782
Mean Motion15.77837532
Decay Rate-1.93E-06
L11 62556U 25006C 25034.68284598 -.00000193 00000+0 17618-5 0 9992
L22 62556 43.0003 29.0482 0001815 258.5884 101.4782 15.77837532 4876



Live tracking and technical data element details for STARLINK-11515 [DTC] (NORAD 62556). STARLINK-11515 [DTC] can be tracked NOW for your location showing map with azimuth and elevation plus other details from your city location.







IsCatalogInMostPopularTable: catalog: 62556, numindb: 13
Update: records affected: 1



GetName: 62556 STARLINK-11515 [DTC]

Hit Count: updated at: Sun, 18 May 2025 23:40:20 GMT